Index of /20260428/WXO-DD/model_gdps/15km/00/168
Name Last modified Size Description
Parent Directory -
20260428T00Z_MSC_GDPS_AbsoluteVorticity_IsbL-0200_LatLon0.15_PT168H.grib2 2026-04-28 04:35 1.5M
20260428T00Z_MSC_GDPS_AbsoluteVorticity_IsbL-0250_LatLon0.15_PT168H.grib2 2026-04-28 04:35 1.3M
20260428T00Z_MSC_GDPS_AbsoluteVorticity_IsbL-0500_LatLon0.15_PT168H.grib2 2026-04-28 04:35 1.5M
20260428T00Z_MSC_GDPS_AbsoluteVorticity_IsbL-0700_LatLon0.15_PT168H.grib2 2026-04-28 04:35 1.3M
20260428T00Z_MSC_GDPS_AbsoluteVorticity_IsbL-0850_LatLon0.15_PT168H.grib2 2026-04-28 04:35 1.6M
20260428T00Z_MSC_GDPS_AirTemp-Max_AGL-2m_LatLon0.15_PT168H.grib2 2026-04-28 04:35 748K
20260428T00Z_MSC_GDPS_AirTemp-Min_AGL-2m_LatLon0.15_PT168H.grib2 2026-04-28 04:35 798K
20260428T00Z_MSC_GDPS_AirTemp_AGL-120m_LatLon0.15_PT168H.grib2 2026-04-28 04:35 912K
20260428T00Z_MSC_GDPS_AirTemp_AGL-2m_LatLon0.15_PT168H.grib2 2026-04-28 04:35 1.0M
20260428T00Z_MSC_GDPS_AirTemp_AGL-40m_LatLon0.15_PT168H.grib2 2026-04-28 04:35 816K
20260428T00Z_MSC_GDPS_AirTemp_AGL-80m_LatLon0.15_PT168H.grib2 2026-04-28 04:35 922K
20260428T00Z_MSC_GDPS_AirTemp_IsbL-0001_LatLon0.15_PT168H.grib2 2026-04-28 04:35 656K
20260428T00Z_MSC_GDPS_AirTemp_IsbL-0005_LatLon0.15_PT168H.grib2 2026-04-28 04:35 676K
20260428T00Z_MSC_GDPS_AirTemp_IsbL-0010_LatLon0.15_PT168H.grib2 2026-04-28 04:35 757K
20260428T00Z_MSC_GDPS_AirTemp_IsbL-0020_LatLon0.15_PT168H.grib2 2026-04-28 04:35 785K
20260428T00Z_MSC_GDPS_AirTemp_IsbL-0030_LatLon0.15_PT168H.grib2 2026-04-28 04:35 833K
20260428T00Z_MSC_GDPS_AirTemp_IsbL-0050_LatLon0.15_PT168H.grib2 2026-04-28 04:35 804K
20260428T00Z_MSC_GDPS_AirTemp_IsbL-0100_LatLon0.15_PT168H.grib2 2026-04-28 04:35 967K
20260428T00Z_MSC_GDPS_AirTemp_IsbL-0150_LatLon0.15_PT168H.grib2 2026-04-28 04:35 969K
20260428T00Z_MSC_GDPS_AirTemp_IsbL-0175_LatLon0.15_PT168H.grib2 2026-04-28 04:35 958K
20260428T00Z_MSC_GDPS_AirTemp_IsbL-0200_LatLon0.15_PT168H.grib2 2026-04-28 04:35 1.0M
20260428T00Z_MSC_GDPS_AirTemp_IsbL-0225_LatLon0.15_PT168H.grib2 2026-04-28 04:35 1.0M
20260428T00Z_MSC_GDPS_AirTemp_IsbL-0250_LatLon0.15_PT168H.grib2 2026-04-28 04:35 1.0M
20260428T00Z_MSC_GDPS_AirTemp_IsbL-0275_LatLon0.15_PT168H.grib2 2026-04-28 04:35 1.0M
20260428T00Z_MSC_GDPS_AirTemp_IsbL-0300_LatLon0.15_PT168H.grib2 2026-04-28 04:35 1.0M
20260428T00Z_MSC_GDPS_AirTemp_IsbL-0350_LatLon0.15_PT168H.grib2 2026-04-28 04:35 932K
20260428T00Z_MSC_GDPS_AirTemp_IsbL-0400_LatLon0.15_PT168H.grib2 2026-04-28 04:35 946K
20260428T00Z_MSC_GDPS_AirTemp_IsbL-0450_LatLon0.15_PT168H.grib2 2026-04-28 04:35 965K
20260428T00Z_MSC_GDPS_AirTemp_IsbL-0500_LatLon0.15_PT168H.grib2 2026-04-28 04:35 1.0M
20260428T00Z_MSC_GDPS_AirTemp_IsbL-0550_LatLon0.15_PT168H.grib2 2026-04-28 04:35 798K
20260428T00Z_MSC_GDPS_AirTemp_IsbL-0600_LatLon0.15_PT168H.grib2 2026-04-28 04:35 886K
20260428T00Z_MSC_GDPS_AirTemp_IsbL-0650_LatLon0.15_PT168H.grib2 2026-04-28 04:35 912K
20260428T00Z_MSC_GDPS_AirTemp_IsbL-0700_LatLon0.15_PT168H.grib2 2026-04-28 04:35 945K
20260428T00Z_MSC_GDPS_AirTemp_IsbL-0750_LatLon0.15_PT168H.grib2 2026-04-28 04:35 1.0M
20260428T00Z_MSC_GDPS_AirTemp_IsbL-0800_LatLon0.15_PT168H.grib2 2026-04-28 04:35 1.0M
20260428T00Z_MSC_GDPS_AirTemp_IsbL-0850_LatLon0.15_PT168H.grib2 2026-04-28 04:35 1.1M
20260428T00Z_MSC_GDPS_AirTemp_IsbL-0875_LatLon0.15_PT168H.grib2 2026-04-28 04:35 1.2M
20260428T00Z_MSC_GDPS_AirTemp_IsbL-0900_LatLon0.15_PT168H.grib2 2026-04-28 04:35 1.1M
20260428T00Z_MSC_GDPS_AirTemp_IsbL-0925_LatLon0.15_PT168H.grib2 2026-04-28 04:35 1.1M
20260428T00Z_MSC_GDPS_AirTemp_IsbL-0950_LatLon0.15_PT168H.grib2 2026-04-28 04:35 1.1M
20260428T00Z_MSC_GDPS_AirTemp_IsbL-0970_LatLon0.15_PT168H.grib2 2026-04-28 04:35 1.1M
20260428T00Z_MSC_GDPS_AirTemp_IsbL-0985_LatLon0.15_PT168H.grib2 2026-04-28 04:35 1.1M
20260428T00Z_MSC_GDPS_AirTemp_IsbL-1000_LatLon0.15_PT168H.grib2 2026-04-28 04:35 1.1M
20260428T00Z_MSC_GDPS_AirTemp_IsbL-1015_LatLon0.15_PT168H.grib2 2026-04-28 04:35 1.1M
20260428T00Z_MSC_GDPS_Albedo_Sfc_LatLon0.15_PT168H.grib2 2026-04-28 04:35 242K
20260428T00Z_MSC_GDPS_CAPE_Sfc_LatLon0.15_PT168H.grib2 2026-04-28 04:35 3.9M
20260428T00Z_MSC_GDPS_CIN_Sfc_LatLon0.15_PT168H.grib2 2026-04-28 04:35 2.8M
20260428T00Z_MSC_GDPS_CloudWater_EAtm_LatLon0.15_PT168H.grib2 2026-04-28 04:35 531K
20260428T00Z_MSC_GDPS_ConvectivePrecip-Accum_Sfc_LatLon0.15_PT168H.grib2 2026-04-28 04:35 3.8M
20260428T00Z_MSC_GDPS_DewPointDepression_AGL-2m_LatLon0.15_PT168H.grib2 2026-04-28 04:35 763K
20260428T00Z_MSC_GDPS_DewPointDepression_IsbL-0010_LatLon0.15_PT168H.grib2 2026-04-28 04:35 69K
20260428T00Z_MSC_GDPS_DewPointDepression_IsbL-0020_LatLon0.15_PT168H.grib2 2026-04-28 04:35 66K
20260428T00Z_MSC_GDPS_DewPointDepression_IsbL-0030_LatLon0.15_PT168H.grib2 2026-04-28 04:35 87K
20260428T00Z_MSC_GDPS_DewPointDepression_IsbL-0050_LatLon0.15_PT168H.grib2 2026-04-28 04:35 380K
20260428T00Z_MSC_GDPS_DewPointDepression_IsbL-0100_LatLon0.15_PT168H.grib2 2026-04-28 04:35 400K
20260428T00Z_MSC_GDPS_DewPointDepression_IsbL-0150_LatLon0.15_PT168H.grib2 2026-04-28 04:35 466K
20260428T00Z_MSC_GDPS_DewPointDepression_IsbL-0175_LatLon0.15_PT168H.grib2 2026-04-28 04:35 579K
20260428T00Z_MSC_GDPS_DewPointDepression_IsbL-0200_LatLon0.15_PT168H.grib2 2026-04-28 04:35 686K
20260428T00Z_MSC_GDPS_DewPointDepression_IsbL-0225_LatLon0.15_PT168H.grib2 2026-04-28 04:35 784K
20260428T00Z_MSC_GDPS_DewPointDepression_IsbL-0250_LatLon0.15_PT168H.grib2 2026-04-28 04:35 868K
20260428T00Z_MSC_GDPS_DewPointDepression_IsbL-0275_LatLon0.15_PT168H.grib2 2026-04-28 04:35 878K
20260428T00Z_MSC_GDPS_DewPointDepression_IsbL-0300_LatLon0.15_PT168H.grib2 2026-04-28 04:35 918K
20260428T00Z_MSC_GDPS_DewPointDepression_IsbL-0350_LatLon0.15_PT168H.grib2 2026-04-28 04:35 956K
20260428T00Z_MSC_GDPS_DewPointDepression_IsbL-0400_LatLon0.15_PT168H.grib2 2026-04-28 04:35 1.0M
20260428T00Z_MSC_GDPS_DewPointDepression_IsbL-0450_LatLon0.15_PT168H.grib2 2026-04-28 04:35 1.0M
20260428T00Z_MSC_GDPS_DewPointDepression_IsbL-0500_LatLon0.15_PT168H.grib2 2026-04-28 04:35 1.0M
20260428T00Z_MSC_GDPS_DewPointDepression_IsbL-0550_LatLon0.15_PT168H.grib2 2026-04-28 04:35 1.0M
20260428T00Z_MSC_GDPS_DewPointDepression_IsbL-0600_LatLon0.15_PT168H.grib2 2026-04-28 04:35 1.0M
20260428T00Z_MSC_GDPS_DewPointDepression_IsbL-0650_LatLon0.15_PT168H.grib2 2026-04-28 04:35 1.1M
20260428T00Z_MSC_GDPS_DewPointDepression_IsbL-0700_LatLon0.15_PT168H.grib2 2026-04-28 04:35 1.1M
20260428T00Z_MSC_GDPS_DewPointDepression_IsbL-0750_LatLon0.15_PT168H.grib2 2026-04-28 04:35 1.1M
20260428T00Z_MSC_GDPS_DewPointDepression_IsbL-0800_LatLon0.15_PT168H.grib2 2026-04-28 04:35 1.2M
20260428T00Z_MSC_GDPS_DewPointDepression_IsbL-0850_LatLon0.15_PT168H.grib2 2026-04-28 04:35 1.2M
20260428T00Z_MSC_GDPS_DewPointDepression_IsbL-0875_LatLon0.15_PT168H.grib2 2026-04-28 04:35 1.1M
20260428T00Z_MSC_GDPS_DewPointDepression_IsbL-0900_LatLon0.15_PT168H.grib2 2026-04-28 04:35 1.1M
20260428T00Z_MSC_GDPS_DewPointDepression_IsbL-0925_LatLon0.15_PT168H.grib2 2026-04-28 04:35 1.0M
20260428T00Z_MSC_GDPS_DewPointDepression_IsbL-0950_LatLon0.15_PT168H.grib2 2026-04-28 04:35 1.0M
20260428T00Z_MSC_GDPS_DewPointDepression_IsbL-0970_LatLon0.15_PT168H.grib2 2026-04-28 04:35 1.0M
20260428T00Z_MSC_GDPS_DewPointDepression_IsbL-0985_LatLon0.15_PT168H.grib2 2026-04-28 04:35 1.0M
20260428T00Z_MSC_GDPS_DewPointDepression_IsbL-1000_LatLon0.15_PT168H.grib2 2026-04-28 04:35 1.0M
20260428T00Z_MSC_GDPS_DewPointDepression_IsbL-1015_LatLon0.15_PT168H.grib2 2026-04-28 04:35 916K
20260428T00Z_MSC_GDPS_DewPoint_AGL-2m_LatLon0.15_PT168H.grib2 2026-04-28 04:35 603K
20260428T00Z_MSC_GDPS_DownwardLongwaveRadiationFlux-Accum_Sfc_LatLon0.15_PT168H.grib2 2026-04-28 04:35 638K
20260428T00Z_MSC_GDPS_DownwardShortwaveRadiationFlux-Accum_NTAtm_LatLon0.15_PT168H.grib2 2026-04-28 04:35 196K
20260428T00Z_MSC_GDPS_DownwardShortwaveRadiationFlux-Accum_Sfc_LatLon0.15_PT168H.grib2 2026-04-28 04:35 828K
20260428T00Z_MSC_GDPS_FreezingRain-Accum12h_Sfc_LatLon0.15_PT168H.grib2 2026-04-28 04:35 96K
20260428T00Z_MSC_GDPS_FreezingRain-Accum24h_Sfc_LatLon0.15_PT168H.grib2 2026-04-28 04:35 104K
20260428T00Z_MSC_GDPS_FreezingRain-Accum3h_Sfc_LatLon0.15_PT168H.grib2 2026-04-28 04:35 39K
20260428T00Z_MSC_GDPS_FreezingRain-Accum6h_Sfc_LatLon0.15_PT168H.grib2 2026-04-28 04:35 61K
20260428T00Z_MSC_GDPS_FreezingRain-Accum_Sfc_LatLon0.15_PT168H.grib2 2026-04-28 04:35 435K
20260428T00Z_MSC_GDPS_GeopotentialHeight_IsbL-0001_LatLon0.15_PT168H.grib2 2026-04-28 04:35 425K
20260428T00Z_MSC_GDPS_GeopotentialHeight_IsbL-0005_LatLon0.15_PT168H.grib2 2026-04-28 04:35 490K
20260428T00Z_MSC_GDPS_GeopotentialHeight_IsbL-0010_LatLon0.15_PT168H.grib2 2026-04-28 04:35 481K
20260428T00Z_MSC_GDPS_GeopotentialHeight_IsbL-0020_LatLon0.15_PT168H.grib2 2026-04-28 04:35 409K
20260428T00Z_MSC_GDPS_GeopotentialHeight_IsbL-0030_LatLon0.15_PT168H.grib2 2026-04-28 04:35 564K
20260428T00Z_MSC_GDPS_GeopotentialHeight_IsbL-0050_LatLon0.15_PT168H.grib2 2026-04-28 04:35 566K
20260428T00Z_MSC_GDPS_GeopotentialHeight_IsbL-0100_LatLon0.15_PT168H.grib2 2026-04-28 04:35 605K
20260428T00Z_MSC_GDPS_GeopotentialHeight_IsbL-0150_LatLon0.15_PT168H.grib2 2026-04-28 04:35 626K
20260428T00Z_MSC_GDPS_GeopotentialHeight_IsbL-0175_LatLon0.15_PT168H.grib2 2026-04-28 04:35 630K
20260428T00Z_MSC_GDPS_GeopotentialHeight_IsbL-0200_LatLon0.15_PT168H.grib2 2026-04-28 04:35 635K
20260428T00Z_MSC_GDPS_GeopotentialHeight_IsbL-0225_LatLon0.15_PT168H.grib2 2026-04-28 04:35 634K
20260428T00Z_MSC_GDPS_GeopotentialHeight_IsbL-0250_LatLon0.15_PT168H.grib2 2026-04-28 04:35 641K
20260428T00Z_MSC_GDPS_GeopotentialHeight_IsbL-0275_LatLon0.15_PT168H.grib2 2026-04-28 04:35 642K
20260428T00Z_MSC_GDPS_GeopotentialHeight_IsbL-0300_LatLon0.15_PT168H.grib2 2026-04-28 04:35 639K
20260428T00Z_MSC_GDPS_GeopotentialHeight_IsbL-0350_LatLon0.15_PT168H.grib2 2026-04-28 04:35 628K
20260428T00Z_MSC_GDPS_GeopotentialHeight_IsbL-0400_LatLon0.15_PT168H.grib2 2026-04-28 04:35 617K
20260428T00Z_MSC_GDPS_GeopotentialHeight_IsbL-0450_LatLon0.15_PT168H.grib2 2026-04-28 04:35 606K
20260428T00Z_MSC_GDPS_GeopotentialHeight_IsbL-0500_LatLon0.15_PT168H.grib2 2026-04-28 04:35 529K
20260428T00Z_MSC_GDPS_GeopotentialHeight_IsbL-0550_LatLon0.15_PT168H.grib2 2026-04-28 04:35 520K
20260428T00Z_MSC_GDPS_GeopotentialHeight_IsbL-0600_LatLon0.15_PT168H.grib2 2026-04-28 04:35 517K
20260428T00Z_MSC_GDPS_GeopotentialHeight_IsbL-0650_LatLon0.15_PT168H.grib2 2026-04-28 04:35 682K
20260428T00Z_MSC_GDPS_GeopotentialHeight_IsbL-0700_LatLon0.15_PT168H.grib2 2026-04-28 04:35 683K
20260428T00Z_MSC_GDPS_GeopotentialHeight_IsbL-0750_LatLon0.15_PT168H.grib2 2026-04-28 04:35 687K
20260428T00Z_MSC_GDPS_GeopotentialHeight_IsbL-0800_LatLon0.15_PT168H.grib2 2026-04-28 04:35 697K
20260428T00Z_MSC_GDPS_GeopotentialHeight_IsbL-0850_LatLon0.15_PT168H.grib2 2026-04-28 04:35 708K
20260428T00Z_MSC_GDPS_GeopotentialHeight_IsbL-0875_LatLon0.15_PT168H.grib2 2026-04-28 04:35 710K
20260428T00Z_MSC_GDPS_GeopotentialHeight_IsbL-0900_LatLon0.15_PT168H.grib2 2026-04-28 04:35 719K
20260428T00Z_MSC_GDPS_GeopotentialHeight_IsbL-0925_LatLon0.15_PT168H.grib2 2026-04-28 04:35 727K
20260428T00Z_MSC_GDPS_GeopotentialHeight_IsbL-0950_LatLon0.15_PT168H.grib2 2026-04-28 04:35 730K
20260428T00Z_MSC_GDPS_GeopotentialHeight_IsbL-0970_LatLon0.15_PT168H.grib2 2026-04-28 04:35 744K
20260428T00Z_MSC_GDPS_GeopotentialHeight_IsbL-0985_LatLon0.15_PT168H.grib2 2026-04-28 04:35 759K
20260428T00Z_MSC_GDPS_GeopotentialHeight_IsbL-1000_LatLon0.15_PT168H.grib2 2026-04-28 04:35 779K
20260428T00Z_MSC_GDPS_GeopotentialHeight_IsbL-1015_LatLon0.15_PT168H.grib2 2026-04-28 04:35 799K
20260428T00Z_MSC_GDPS_IcePellets-Accum12h_Sfc_LatLon0.15_PT168H.grib2 2026-04-28 04:35 27K
20260428T00Z_MSC_GDPS_IcePellets-Accum24h_Sfc_LatLon0.15_PT168H.grib2 2026-04-28 04:35 27K
20260428T00Z_MSC_GDPS_IcePellets-Accum3h_Sfc_LatLon0.15_PT168H.grib2 2026-04-28 04:35 13K
20260428T00Z_MSC_GDPS_IcePellets-Accum6h_Sfc_LatLon0.15_PT168H.grib2 2026-04-28 04:35 20K
20260428T00Z_MSC_GDPS_IcePellets-Accum_Sfc_LatLon0.15_PT168H.grib2 2026-04-28 04:35 133K
20260428T00Z_MSC_GDPS_KIndex_Sfc_LatLon0.15_PT168H.grib2 2026-04-28 04:35 6.5M
20260428T00Z_MSC_GDPS_LatentHeatNetFlux_Sfc_LatLon0.15_PT168H.grib2 2026-04-28 04:35 666K
20260428T00Z_MSC_GDPS_LiftedIndex-MU-VT_IsbL-0500_LatLon0.15_PT168H.grib2 2026-04-28 04:35 5.3M
20260428T00Z_MSC_GDPS_NetLongwaveRadiationFlux-Accum_Sfc_LatLon0.15_PT168H.grib2 2026-04-28 04:35 853K
20260428T00Z_MSC_GDPS_NetShortwaveRadiationFlux-Accum_Sfc_LatLon0.15_PT168H.grib2 2026-04-28 04:35 1.1M
20260428T00Z_MSC_GDPS_O3MixingRatio_LatLon0.15_PT168H.grib2 2026-04-28 04:54 1.9M
20260428T00Z_MSC_GDPS_O3_EAtm_LatLon0.15_PT168H.grib2 2026-04-28 04:54 2.4M
20260428T00Z_MSC_GDPS_PlanetaryBoundaryLayerHeight_Sfc_LatLon0.15_PT168H.grib2 2026-04-28 04:35 2.4M
20260428T00Z_MSC_GDPS_Precip-Accum12h_Sfc_LatLon0.15_PT168H.grib2 2026-04-28 04:35 4.0M
20260428T00Z_MSC_GDPS_Precip-Accum24h_Sfc_LatLon0.15_PT168H.grib2 2026-04-28 04:35 4.5M
20260428T00Z_MSC_GDPS_Precip-Accum3h_Sfc_LatLon0.15_PT168H.grib2 2026-04-28 04:35 3.5M
20260428T00Z_MSC_GDPS_Precip-Accum6h_Sfc_LatLon0.15_PT168H.grib2 2026-04-28 04:35 3.6M
20260428T00Z_MSC_GDPS_Precip-Accum_Sfc_LatLon0.15_PT168H.grib2 2026-04-28 04:35 5.3M
20260428T00Z_MSC_GDPS_PrecipRate_Sfc_LatLon0.15_PT168H.grib2 2026-04-28 04:35 3.1M
20260428T00Z_MSC_GDPS_PrecipType-Instant_Sfc_LatLon0.15_PT168H.grib2 2026-04-28 04:35 1.6M
20260428T00Z_MSC_GDPS_Pressure_MSL_LatLon0.15_PT168H.grib2 2026-04-28 04:35 817K
20260428T00Z_MSC_GDPS_Pressure_Sfc_LatLon0.15_PT168H.grib2 2026-04-28 04:35 1.1M
20260428T00Z_MSC_GDPS_RadiativeTemp_Sfc_LatLon0.15_PT168H.grib2 2026-04-28 04:35 659K
20260428T00Z_MSC_GDPS_Rain-Accum12h_Sfc_LatLon0.15_PT168H.grib2 2026-04-28 04:35 2.8M
20260428T00Z_MSC_GDPS_Rain-Accum24h_Sfc_LatLon0.15_PT168H.grib2 2026-04-28 04:35 3.2M
20260428T00Z_MSC_GDPS_Rain-Accum3h_Sfc_LatLon0.15_PT168H.grib2 2026-04-28 04:35 1.7M
20260428T00Z_MSC_GDPS_Rain-Accum6h_Sfc_LatLon0.15_PT168H.grib2 2026-04-28 04:35 2.3M
20260428T00Z_MSC_GDPS_Rain-Accum_Sfc_LatLon0.15_PT168H.grib2 2026-04-28 04:35 4.2M
20260428T00Z_MSC_GDPS_RelativeHumidity_AGL-2m_LatLon0.15_PT168H.grib2 2026-04-28 04:35 1.1M
20260428T00Z_MSC_GDPS_RelativeHumidity_IsbL-0010_LatLon0.15_PT168H.grib2 2026-04-28 04:35 191K
20260428T00Z_MSC_GDPS_RelativeHumidity_IsbL-0020_LatLon0.15_PT168H.grib2 2026-04-28 04:35 155K
20260428T00Z_MSC_GDPS_RelativeHumidity_IsbL-0030_LatLon0.15_PT168H.grib2 2026-04-28 04:35 181K
20260428T00Z_MSC_GDPS_RelativeHumidity_IsbL-0050_LatLon0.15_PT168H.grib2 2026-04-28 04:35 334K
20260428T00Z_MSC_GDPS_RelativeHumidity_IsbL-0100_LatLon0.15_PT168H.grib2 2026-04-28 04:35 500K
20260428T00Z_MSC_GDPS_RelativeHumidity_IsbL-0150_LatLon0.15_PT168H.grib2 2026-04-28 04:35 656K
20260428T00Z_MSC_GDPS_RelativeHumidity_IsbL-0175_LatLon0.15_PT168H.grib2 2026-04-28 04:35 794K
20260428T00Z_MSC_GDPS_RelativeHumidity_IsbL-0200_LatLon0.15_PT168H.grib2 2026-04-28 04:35 715K
20260428T00Z_MSC_GDPS_RelativeHumidity_IsbL-0225_LatLon0.15_PT168H.grib2 2026-04-28 04:35 791K
20260428T00Z_MSC_GDPS_RelativeHumidity_IsbL-0250_LatLon0.15_PT168H.grib2 2026-04-28 04:35 870K
20260428T00Z_MSC_GDPS_RelativeHumidity_IsbL-0275_LatLon0.15_PT168H.grib2 2026-04-28 04:35 890K
20260428T00Z_MSC_GDPS_RelativeHumidity_IsbL-0300_LatLon0.15_PT168H.grib2 2026-04-28 04:35 933K
20260428T00Z_MSC_GDPS_RelativeHumidity_IsbL-0350_LatLon0.15_PT168H.grib2 2026-04-28 04:35 957K
20260428T00Z_MSC_GDPS_RelativeHumidity_IsbL-0400_LatLon0.15_PT168H.grib2 2026-04-28 04:35 1.0M
20260428T00Z_MSC_GDPS_RelativeHumidity_IsbL-0450_LatLon0.15_PT168H.grib2 2026-04-28 04:35 1.0M
20260428T00Z_MSC_GDPS_RelativeHumidity_IsbL-0500_LatLon0.15_PT168H.grib2 2026-04-28 04:35 1.0M
20260428T00Z_MSC_GDPS_RelativeHumidity_IsbL-0550_LatLon0.15_PT168H.grib2 2026-04-28 04:35 1.0M
20260428T00Z_MSC_GDPS_RelativeHumidity_IsbL-0600_LatLon0.15_PT168H.grib2 2026-04-28 04:35 1.1M
20260428T00Z_MSC_GDPS_RelativeHumidity_IsbL-0650_LatLon0.15_PT168H.grib2 2026-04-28 04:35 1.1M
20260428T00Z_MSC_GDPS_RelativeHumidity_IsbL-0700_LatLon0.15_PT168H.grib2 2026-04-28 04:35 1.1M
20260428T00Z_MSC_GDPS_RelativeHumidity_IsbL-0750_LatLon0.15_PT168H.grib2 2026-04-28 04:35 1.2M
20260428T00Z_MSC_GDPS_RelativeHumidity_IsbL-0800_LatLon0.15_PT168H.grib2 2026-04-28 04:35 1.2M
20260428T00Z_MSC_GDPS_RelativeHumidity_IsbL-0850_LatLon0.15_PT168H.grib2 2026-04-28 04:35 1.3M
20260428T00Z_MSC_GDPS_RelativeHumidity_IsbL-0875_LatLon0.15_PT168H.grib2 2026-04-28 04:35 1.3M
20260428T00Z_MSC_GDPS_RelativeHumidity_IsbL-0900_LatLon0.15_PT168H.grib2 2026-04-28 04:35 1.2M
20260428T00Z_MSC_GDPS_RelativeHumidity_IsbL-0925_LatLon0.15_PT168H.grib2 2026-04-28 04:35 1.2M
20260428T00Z_MSC_GDPS_RelativeHumidity_IsbL-0950_LatLon0.15_PT168H.grib2 2026-04-28 04:35 1.2M
20260428T00Z_MSC_GDPS_RelativeHumidity_IsbL-0970_LatLon0.15_PT168H.grib2 2026-04-28 04:35 1.2M
20260428T00Z_MSC_GDPS_RelativeHumidity_IsbL-0985_LatLon0.15_PT168H.grib2 2026-04-28 04:35 1.2M
20260428T00Z_MSC_GDPS_RelativeHumidity_IsbL-1000_LatLon0.15_PT168H.grib2 2026-04-28 04:35 1.1M
20260428T00Z_MSC_GDPS_RelativeHumidity_IsbL-1015_LatLon0.15_PT168H.grib2 2026-04-28 04:35 1.0M
20260428T00Z_MSC_GDPS_RelativeVorticity_IsbL-0200_LatLon0.15_PT168H.grib2 2026-04-28 04:35 1.5M
20260428T00Z_MSC_GDPS_RelativeVorticity_IsbL-0250_LatLon0.15_PT168H.grib2 2026-04-28 04:35 1.3M
20260428T00Z_MSC_GDPS_RelativeVorticity_IsbL-0500_LatLon0.15_PT168H.grib2 2026-04-28 04:35 1.5M
20260428T00Z_MSC_GDPS_RelativeVorticity_IsbL-0700_LatLon0.15_PT168H.grib2 2026-04-28 04:35 1.3M
20260428T00Z_MSC_GDPS_RelativeVorticity_IsbL-0850_LatLon0.15_PT168H.grib2 2026-04-28 04:35 1.6M
20260428T00Z_MSC_GDPS_Runoff-Accum_Sfc_LatLon0.15_PT168H.grib2 2026-04-28 04:35 120K
20260428T00Z_MSC_GDPS_SensibleHeatNetFlux_Sfc_LatLon0.15_PT168H.grib2 2026-04-28 04:35 614K
20260428T00Z_MSC_GDPS_ShowalterIndex_IsbL-0500_LatLon0.15_PT168H.grib2 2026-04-28 04:35 6.2M
20260428T00Z_MSC_GDPS_Snow-Accum12h_Sfc_LatLon0.15_PT168H.grib2 2026-04-28 04:35 1.3M
20260428T00Z_MSC_GDPS_Snow-Accum24h_Sfc_LatLon0.15_PT168H.grib2 2026-04-28 04:35 1.4M
20260428T00Z_MSC_GDPS_Snow-Accum3h_Sfc_LatLon0.15_PT168H.grib2 2026-04-28 04:35 1.1M
20260428T00Z_MSC_GDPS_Snow-Accum6h_Sfc_LatLon0.15_PT168H.grib2 2026-04-28 04:35 1.3M
20260428T00Z_MSC_GDPS_Snow-Accum_Sfc_LatLon0.15_PT168H.grib2 2026-04-28 04:35 2.1M
20260428T00Z_MSC_GDPS_SnowDensity_Sfc_LatLon0.15_PT168H.grib2 2026-04-28 04:35 266K
20260428T00Z_MSC_GDPS_SnowDepth_Sfc_LatLon0.15_PT168H.grib2 2026-04-28 04:35 1.7M
20260428T00Z_MSC_GDPS_SoilTemp_DBS-0to10cm_LatLon0.15_PT168H.grib2 2026-04-28 04:35 512K
20260428T00Z_MSC_GDPS_SoilTemp_Sfc_LatLon0.15_PT168H.grib2 2026-04-28 04:35 562K
20260428T00Z_MSC_GDPS_SoilVolumetricIceContent_Sfc_LatLon0.15_PT168H.grib2 2026-04-28 04:35 194K
20260428T00Z_MSC_GDPS_SoilVolumetricWaterContent_DBS-0to10cm_LatLon0.15_PT168H.grib2 2026-04-28 04:35 590K
20260428T00Z_MSC_GDPS_SoilVolumetricWaterContent_DBS-0to1cm_LatLon0.15_PT168H.grib2 2026-04-28 04:35 648K
20260428T00Z_MSC_GDPS_SpecificHumidity_AGL-120m_LatLon0.15_PT168H.grib2 2026-04-28 04:35 1.1M
20260428T00Z_MSC_GDPS_SpecificHumidity_AGL-2m_LatLon0.15_PT168H.grib2 2026-04-28 04:35 1.2M
20260428T00Z_MSC_GDPS_SpecificHumidity_AGL-40m_LatLon0.15_PT168H.grib2 2026-04-28 04:35 1.1M
20260428T00Z_MSC_GDPS_SpecificHumidity_AGL-80m_LatLon0.15_PT168H.grib2 2026-04-28 04:35 1.1M
20260428T00Z_MSC_GDPS_SpecificHumidity_IsbL-0001_LatLon0.15_PT168H.grib2 2026-04-28 04:35 1.2M
20260428T00Z_MSC_GDPS_SpecificHumidity_IsbL-0005_LatLon0.15_PT168H.grib2 2026-04-28 04:35 1.1M
20260428T00Z_MSC_GDPS_SpecificHumidity_IsbL-0010_LatLon0.15_PT168H.grib2 2026-04-28 04:35 1.2M
20260428T00Z_MSC_GDPS_SpecificHumidity_IsbL-0020_LatLon0.15_PT168H.grib2 2026-04-28 04:35 1.2M
20260428T00Z_MSC_GDPS_SpecificHumidity_IsbL-0030_LatLon0.15_PT168H.grib2 2026-04-28 04:35 1.5M
20260428T00Z_MSC_GDPS_SpecificHumidity_IsbL-0050_LatLon0.15_PT168H.grib2 2026-04-28 04:35 1.5M
20260428T00Z_MSC_GDPS_SpecificHumidity_IsbL-0100_LatLon0.15_PT168H.grib2 2026-04-28 04:35 1.3M
20260428T00Z_MSC_GDPS_SpecificHumidity_IsbL-0150_LatLon0.15_PT168H.grib2 2026-04-28 04:35 1.3M
20260428T00Z_MSC_GDPS_SpecificHumidity_IsbL-0175_LatLon0.15_PT168H.grib2 2026-04-28 04:35 1.3M
20260428T00Z_MSC_GDPS_SpecificHumidity_IsbL-0200_LatLon0.15_PT168H.grib2 2026-04-28 04:35 1.3M
20260428T00Z_MSC_GDPS_SpecificHumidity_IsbL-0225_LatLon0.15_PT168H.grib2 2026-04-28 04:35 1.3M
20260428T00Z_MSC_GDPS_SpecificHumidity_IsbL-0250_LatLon0.15_PT168H.grib2 2026-04-28 04:35 1.4M
20260428T00Z_MSC_GDPS_SpecificHumidity_IsbL-0275_LatLon0.15_PT168H.grib2 2026-04-28 04:35 1.3M
20260428T00Z_MSC_GDPS_SpecificHumidity_IsbL-0300_LatLon0.15_PT168H.grib2 2026-04-28 04:35 1.2M
20260428T00Z_MSC_GDPS_SpecificHumidity_IsbL-0350_LatLon0.15_PT168H.grib2 2026-04-28 04:35 1.2M
20260428T00Z_MSC_GDPS_SpecificHumidity_IsbL-0400_LatLon0.15_PT168H.grib2 2026-04-28 04:35 1.5M
20260428T00Z_MSC_GDPS_SpecificHumidity_IsbL-0450_LatLon0.15_PT168H.grib2 2026-04-28 04:35 1.6M
20260428T00Z_MSC_GDPS_SpecificHumidity_IsbL-0500_LatLon0.15_PT168H.grib2 2026-04-28 04:35 1.4M
20260428T00Z_MSC_GDPS_SpecificHumidity_IsbL-0550_LatLon0.15_PT168H.grib2 2026-04-28 04:35 1.6M
20260428T00Z_MSC_GDPS_SpecificHumidity_IsbL-0600_LatLon0.15_PT168H.grib2 2026-04-28 04:35 1.7M
20260428T00Z_MSC_GDPS_SpecificHumidity_IsbL-0650_LatLon0.15_PT168H.grib2 2026-04-28 04:35 1.5M
20260428T00Z_MSC_GDPS_SpecificHumidity_IsbL-0700_LatLon0.15_PT168H.grib2 2026-04-28 04:35 1.6M
20260428T00Z_MSC_GDPS_SpecificHumidity_IsbL-0750_LatLon0.15_PT168H.grib2 2026-04-28 04:35 1.7M
20260428T00Z_MSC_GDPS_SpecificHumidity_IsbL-0800_LatLon0.15_PT168H.grib2 2026-04-28 04:35 1.8M
20260428T00Z_MSC_GDPS_SpecificHumidity_IsbL-0850_LatLon0.15_PT168H.grib2 2026-04-28 04:35 1.9M
20260428T00Z_MSC_GDPS_SpecificHumidity_IsbL-0875_LatLon0.15_PT168H.grib2 2026-04-28 04:35 1.9M
20260428T00Z_MSC_GDPS_SpecificHumidity_IsbL-0900_LatLon0.15_PT168H.grib2 2026-04-28 04:35 1.6M
20260428T00Z_MSC_GDPS_SpecificHumidity_IsbL-0925_LatLon0.15_PT168H.grib2 2026-04-28 04:35 1.6M
20260428T00Z_MSC_GDPS_SpecificHumidity_IsbL-0950_LatLon0.15_PT168H.grib2 2026-04-28 04:35 1.5M
20260428T00Z_MSC_GDPS_SpecificHumidity_IsbL-0970_LatLon0.15_PT168H.grib2 2026-04-28 04:35 1.5M
20260428T00Z_MSC_GDPS_SpecificHumidity_IsbL-0985_LatLon0.15_PT168H.grib2 2026-04-28 04:35 1.5M
20260428T00Z_MSC_GDPS_SpecificHumidity_IsbL-1000_LatLon0.15_PT168H.grib2 2026-04-28 04:35 1.5M
20260428T00Z_MSC_GDPS_SpecificHumidity_IsbL-1015_LatLon0.15_PT168H.grib2 2026-04-28 04:35 1.4M
20260428T00Z_MSC_GDPS_SpecificHumidity_Sfc_LatLon0.15_PT168H.grib2 2026-04-28 04:35 631K
20260428T00Z_MSC_GDPS_Thickness_IsbL-0850to0700_LatLon0.15_PT168H.grib2 2026-04-28 04:35 470K
20260428T00Z_MSC_GDPS_Thickness_IsbL-1000to0500_LatLon0.15_PT168H.grib2 2026-04-28 04:35 377K
20260428T00Z_MSC_GDPS_Thickness_IsbL-1000to0850_LatLon0.15_PT168H.grib2 2026-04-28 04:35 491K
20260428T00Z_MSC_GDPS_TotalCloudCover_Sfc_LatLon0.15_PT168H.grib2 2026-04-28 04:35 828K
20260428T00Z_MSC_GDPS_TotalTotalsIndex_Sfc_LatLon0.15_PT168H.grib2 2026-04-28 04:35 6.2M
20260428T00Z_MSC_GDPS_UVIndex-ClearSky_Sfc_LatLon0.15_PT168H.grib2 2026-04-28 04:54 1.0M
20260428T00Z_MSC_GDPS_UVIndex_Sfc_LatLon0.15_PT168H.grib2 2026-04-28 04:54 1.5M
20260428T00Z_MSC_GDPS_UpwardLongwaveRadiationFlux_NTAtm_LatLon0.15_PT168H.grib2 2026-04-28 04:35 1.1M
20260428T00Z_MSC_GDPS_VerticalVelocity_IsbL-0200_LatLon0.15_PT168H.grib2 2026-04-28 04:35 937K
20260428T00Z_MSC_GDPS_VerticalVelocity_IsbL-0250_LatLon0.15_PT168H.grib2 2026-04-28 04:35 1.1M
20260428T00Z_MSC_GDPS_VerticalVelocity_IsbL-0500_LatLon0.15_PT168H.grib2 2026-04-28 04:35 1.0M
20260428T00Z_MSC_GDPS_VerticalVelocity_IsbL-0600_LatLon0.15_PT168H.grib2 2026-04-28 04:35 1.1M
20260428T00Z_MSC_GDPS_VerticalVelocity_IsbL-0700_LatLon0.15_PT168H.grib2 2026-04-28 04:35 1.1M
20260428T00Z_MSC_GDPS_VerticalVelocity_IsbL-0850_LatLon0.15_PT168H.grib2 2026-04-28 04:35 1.2M
20260428T00Z_MSC_GDPS_WindChill_Sfc_LatLon0.15_PT168H.grib2 2026-04-28 04:35 5.3M
20260428T00Z_MSC_GDPS_WindDir_AGL-10m_LatLon0.15_PT168H.grib2 2026-04-28 04:35 1.3M
20260428T00Z_MSC_GDPS_WindDir_AGL-120m_LatLon0.15_PT168H.grib2 2026-04-28 04:35 1.3M
20260428T00Z_MSC_GDPS_WindDir_AGL-40m_LatLon0.15_PT168H.grib2 2026-04-28 04:35 1.4M
20260428T00Z_MSC_GDPS_WindDir_AGL-80m_LatLon0.15_PT168H.grib2 2026-04-28 04:35 1.4M
20260428T00Z_MSC_GDPS_WindDir_IsbL-0001_LatLon0.15_PT168H.grib2 2026-04-28 04:35 676K
20260428T00Z_MSC_GDPS_WindDir_IsbL-0005_LatLon0.15_PT168H.grib2 2026-04-28 04:35 799K
20260428T00Z_MSC_GDPS_WindDir_IsbL-0010_LatLon0.15_PT168H.grib2 2026-04-28 04:35 835K
20260428T00Z_MSC_GDPS_WindDir_IsbL-0020_LatLon0.15_PT168H.grib2 2026-04-28 04:35 939K
20260428T00Z_MSC_GDPS_WindDir_IsbL-0030_LatLon0.15_PT168H.grib2 2026-04-28 04:35 940K
20260428T00Z_MSC_GDPS_WindDir_IsbL-0050_LatLon0.15_PT168H.grib2 2026-04-28 04:35 936K
20260428T00Z_MSC_GDPS_WindDir_IsbL-0100_LatLon0.15_PT168H.grib2 2026-04-28 04:35 1.0M
20260428T00Z_MSC_GDPS_WindDir_IsbL-0150_LatLon0.15_PT168H.grib2 2026-04-28 04:35 1.0M
20260428T00Z_MSC_GDPS_WindDir_IsbL-0175_LatLon0.15_PT168H.grib2 2026-04-28 04:35 1.0M
20260428T00Z_MSC_GDPS_WindDir_IsbL-0200_LatLon0.15_PT168H.grib2 2026-04-28 04:35 1.1M
20260428T00Z_MSC_GDPS_WindDir_IsbL-0225_LatLon0.15_PT168H.grib2 2026-04-28 04:35 1.1M
20260428T00Z_MSC_GDPS_WindDir_IsbL-0250_LatLon0.15_PT168H.grib2 2026-04-28 04:35 1.1M
20260428T00Z_MSC_GDPS_WindDir_IsbL-0275_LatLon0.15_PT168H.grib2 2026-04-28 04:35 1.2M
20260428T00Z_MSC_GDPS_WindDir_IsbL-0300_LatLon0.15_PT168H.grib2 2026-04-28 04:35 1.2M
20260428T00Z_MSC_GDPS_WindDir_IsbL-0350_LatLon0.15_PT168H.grib2 2026-04-28 04:35 1.2M
20260428T00Z_MSC_GDPS_WindDir_IsbL-0400_LatLon0.15_PT168H.grib2 2026-04-28 04:35 1.3M
20260428T00Z_MSC_GDPS_WindDir_IsbL-0450_LatLon0.15_PT168H.grib2 2026-04-28 04:35 1.3M
20260428T00Z_MSC_GDPS_WindDir_IsbL-0500_LatLon0.15_PT168H.grib2 2026-04-28 04:35 1.3M
20260428T00Z_MSC_GDPS_WindDir_IsbL-0550_LatLon0.15_PT168H.grib2 2026-04-28 04:35 1.4M
20260428T00Z_MSC_GDPS_WindDir_IsbL-0600_LatLon0.15_PT168H.grib2 2026-04-28 04:35 1.4M
20260428T00Z_MSC_GDPS_WindDir_IsbL-0650_LatLon0.15_PT168H.grib2 2026-04-28 04:35 1.5M
20260428T00Z_MSC_GDPS_WindDir_IsbL-0700_LatLon0.15_PT168H.grib2 2026-04-28 04:35 1.6M
20260428T00Z_MSC_GDPS_WindDir_IsbL-0750_LatLon0.15_PT168H.grib2 2026-04-28 04:35 1.7M
20260428T00Z_MSC_GDPS_WindDir_IsbL-0800_LatLon0.15_PT168H.grib2 2026-04-28 04:35 1.8M
20260428T00Z_MSC_GDPS_WindDir_IsbL-0850_LatLon0.15_PT168H.grib2 2026-04-28 04:35 1.9M
20260428T00Z_MSC_GDPS_WindDir_IsbL-0875_LatLon0.15_PT168H.grib2 2026-04-28 04:35 1.9M
20260428T00Z_MSC_GDPS_WindDir_IsbL-0900_LatLon0.15_PT168H.grib2 2026-04-28 04:35 2.0M
20260428T00Z_MSC_GDPS_WindDir_IsbL-0925_LatLon0.15_PT168H.grib2 2026-04-28 04:35 2.0M
20260428T00Z_MSC_GDPS_WindDir_IsbL-0950_LatLon0.15_PT168H.grib2 2026-04-28 04:35 2.0M
20260428T00Z_MSC_GDPS_WindDir_IsbL-0970_LatLon0.15_PT168H.grib2 2026-04-28 04:35 2.0M
20260428T00Z_MSC_GDPS_WindDir_IsbL-0985_LatLon0.15_PT168H.grib2 2026-04-28 04:35 2.0M
20260428T00Z_MSC_GDPS_WindDir_IsbL-1000_LatLon0.15_PT168H.grib2 2026-04-28 04:35 2.1M
20260428T00Z_MSC_GDPS_WindDir_IsbL-1015_LatLon0.15_PT168H.grib2 2026-04-28 04:35 2.0M
20260428T00Z_MSC_GDPS_WindGust-Max_AGL-10m_LatLon0.15_PT168H.grib2 2026-04-28 04:35 2.2M
20260428T00Z_MSC_GDPS_WindGust-Min_AGL-10m_LatLon0.15_PT168H.grib2 2026-04-28 04:35 2.2M
20260428T00Z_MSC_GDPS_WindGust_AGL-10m_LatLon0.15_PT168H.grib2 2026-04-28 04:35 2.2M
20260428T00Z_MSC_GDPS_WindSpeed_AGL-10m_LatLon0.15_PT168H.grib2 2026-04-28 04:35 1.1M
20260428T00Z_MSC_GDPS_WindSpeed_AGL-120m_LatLon0.15_PT168H.grib2 2026-04-28 04:35 1.2M
20260428T00Z_MSC_GDPS_WindSpeed_AGL-40m_LatLon0.15_PT168H.grib2 2026-04-28 04:35 1.2M
20260428T00Z_MSC_GDPS_WindSpeed_AGL-80m_LatLon0.15_PT168H.grib2 2026-04-28 04:35 1.2M
20260428T00Z_MSC_GDPS_WindSpeed_IsbL-0001_LatLon0.15_PT168H.grib2 2026-04-28 04:35 647K
20260428T00Z_MSC_GDPS_WindSpeed_IsbL-0005_LatLon0.15_PT168H.grib2 2026-04-28 04:35 606K
20260428T00Z_MSC_GDPS_WindSpeed_IsbL-0010_LatLon0.15_PT168H.grib2 2026-04-28 04:35 622K
20260428T00Z_MSC_GDPS_WindSpeed_IsbL-0020_LatLon0.15_PT168H.grib2 2026-04-28 04:35 660K
20260428T00Z_MSC_GDPS_WindSpeed_IsbL-0030_LatLon0.15_PT168H.grib2 2026-04-28 04:35 859K
20260428T00Z_MSC_GDPS_WindSpeed_IsbL-0050_LatLon0.15_PT168H.grib2 2026-04-28 04:35 899K
20260428T00Z_MSC_GDPS_WindSpeed_IsbL-0100_LatLon0.15_PT168H.grib2 2026-04-28 04:35 1.1M
20260428T00Z_MSC_GDPS_WindSpeed_IsbL-0150_LatLon0.15_PT168H.grib2 2026-04-28 04:35 947K
20260428T00Z_MSC_GDPS_WindSpeed_IsbL-0175_LatLon0.15_PT168H.grib2 2026-04-28 04:35 1.0M
20260428T00Z_MSC_GDPS_WindSpeed_IsbL-0200_LatLon0.15_PT168H.grib2 2026-04-28 04:35 1.1M
20260428T00Z_MSC_GDPS_WindSpeed_IsbL-0225_LatLon0.15_PT168H.grib2 2026-04-28 04:35 1.1M
20260428T00Z_MSC_GDPS_WindSpeed_IsbL-0250_LatLon0.15_PT168H.grib2 2026-04-28 04:35 1.1M
20260428T00Z_MSC_GDPS_WindSpeed_IsbL-0275_LatLon0.15_PT168H.grib2 2026-04-28 04:35 1.1M
20260428T00Z_MSC_GDPS_WindSpeed_IsbL-0300_LatLon0.15_PT168H.grib2 2026-04-28 04:35 1.1M
20260428T00Z_MSC_GDPS_WindSpeed_IsbL-0350_LatLon0.15_PT168H.grib2 2026-04-28 04:35 1.1M
20260428T00Z_MSC_GDPS_WindSpeed_IsbL-0400_LatLon0.15_PT168H.grib2 2026-04-28 04:35 1.1M
20260428T00Z_MSC_GDPS_WindSpeed_IsbL-0450_LatLon0.15_PT168H.grib2 2026-04-28 04:35 1.1M
20260428T00Z_MSC_GDPS_WindSpeed_IsbL-0500_LatLon0.15_PT168H.grib2 2026-04-28 04:35 1.1M
20260428T00Z_MSC_GDPS_WindSpeed_IsbL-0550_LatLon0.15_PT168H.grib2 2026-04-28 04:35 1.1M
20260428T00Z_MSC_GDPS_WindSpeed_IsbL-0600_LatLon0.15_PT168H.grib2 2026-04-28 04:35 1.4M
20260428T00Z_MSC_GDPS_WindSpeed_IsbL-0650_LatLon0.15_PT168H.grib2 2026-04-28 04:35 1.4M
20260428T00Z_MSC_GDPS_WindSpeed_IsbL-0700_LatLon0.15_PT168H.grib2 2026-04-28 04:35 1.5M
20260428T00Z_MSC_GDPS_WindSpeed_IsbL-0750_LatLon0.15_PT168H.grib2 2026-04-28 04:35 1.5M
20260428T00Z_MSC_GDPS_WindSpeed_IsbL-0800_LatLon0.15_PT168H.grib2 2026-04-28 04:35 1.7M
20260428T00Z_MSC_GDPS_WindSpeed_IsbL-0850_LatLon0.15_PT168H.grib2 2026-04-28 04:35 1.7M
20260428T00Z_MSC_GDPS_WindSpeed_IsbL-0875_LatLon0.15_PT168H.grib2 2026-04-28 04:35 1.8M
20260428T00Z_MSC_GDPS_WindSpeed_IsbL-0900_LatLon0.15_PT168H.grib2 2026-04-28 04:35 1.8M
20260428T00Z_MSC_GDPS_WindSpeed_IsbL-0925_LatLon0.15_PT168H.grib2 2026-04-28 04:35 1.9M
20260428T00Z_MSC_GDPS_WindSpeed_IsbL-0950_LatLon0.15_PT168H.grib2 2026-04-28 04:35 1.9M
20260428T00Z_MSC_GDPS_WindSpeed_IsbL-0970_LatLon0.15_PT168H.grib2 2026-04-28 04:35 1.9M
20260428T00Z_MSC_GDPS_WindSpeed_IsbL-0985_LatLon0.15_PT168H.grib2 2026-04-28 04:35 1.9M
20260428T00Z_MSC_GDPS_WindSpeed_IsbL-1000_LatLon0.15_PT168H.grib2 2026-04-28 04:35 1.8M
20260428T00Z_MSC_GDPS_WindSpeed_IsbL-1015_LatLon0.15_PT168H.grib2 2026-04-28 04:35 1.8M
20260428T00Z_MSC_GDPS_WindU_AGL-10m_LatLon0.15_PT168H.grib2 2026-04-28 04:35 1.3M
20260428T00Z_MSC_GDPS_WindU_AGL-120m_LatLon0.15_PT168H.grib2 2026-04-28 04:35 1.0M
20260428T00Z_MSC_GDPS_WindU_AGL-40m_LatLon0.15_PT168H.grib2 2026-04-28 04:35 967K
20260428T00Z_MSC_GDPS_WindU_AGL-80m_LatLon0.15_PT168H.grib2 2026-04-28 04:35 1.0M
20260428T00Z_MSC_GDPS_WindU_IsbL-0001_LatLon0.15_PT168H.grib2 2026-04-28 04:35 501K
20260428T00Z_MSC_GDPS_WindU_IsbL-0005_LatLon0.15_PT168H.grib2 2026-04-28 04:35 687K
20260428T00Z_MSC_GDPS_WindU_IsbL-0010_LatLon0.15_PT168H.grib2 2026-04-28 04:35 695K
20260428T00Z_MSC_GDPS_WindU_IsbL-0020_LatLon0.15_PT168H.grib2 2026-04-28 04:35 727K
20260428T00Z_MSC_GDPS_WindU_IsbL-0030_LatLon0.15_PT168H.grib2 2026-04-28 04:35 737K
20260428T00Z_MSC_GDPS_WindU_IsbL-0050_LatLon0.15_PT168H.grib2 2026-04-28 04:35 692K
20260428T00Z_MSC_GDPS_WindU_IsbL-0100_LatLon0.15_PT168H.grib2 2026-04-28 04:35 922K
20260428T00Z_MSC_GDPS_WindU_IsbL-0150_LatLon0.15_PT168H.grib2 2026-04-28 04:35 1.0M
20260428T00Z_MSC_GDPS_WindU_IsbL-0175_LatLon0.15_PT168H.grib2 2026-04-28 04:35 1.0M
20260428T00Z_MSC_GDPS_WindU_IsbL-0200_LatLon0.15_PT168H.grib2 2026-04-28 04:35 843K
20260428T00Z_MSC_GDPS_WindU_IsbL-0225_LatLon0.15_PT168H.grib2 2026-04-28 04:35 853K
20260428T00Z_MSC_GDPS_WindU_IsbL-0250_LatLon0.15_PT168H.grib2 2026-04-28 04:35 856K
20260428T00Z_MSC_GDPS_WindU_IsbL-0275_LatLon0.15_PT168H.grib2 2026-04-28 04:35 884K
20260428T00Z_MSC_GDPS_WindU_IsbL-0300_LatLon0.15_PT168H.grib2 2026-04-28 04:35 878K
20260428T00Z_MSC_GDPS_WindU_IsbL-0350_LatLon0.15_PT168H.grib2 2026-04-28 04:35 1.1M
20260428T00Z_MSC_GDPS_WindU_IsbL-0400_LatLon0.15_PT168H.grib2 2026-04-28 04:35 1.1M
20260428T00Z_MSC_GDPS_WindU_IsbL-0450_LatLon0.15_PT168H.grib2 2026-04-28 04:35 1.1M
20260428T00Z_MSC_GDPS_WindU_IsbL-0500_LatLon0.15_PT168H.grib2 2026-04-28 04:35 1.1M
20260428T00Z_MSC_GDPS_WindU_IsbL-0550_LatLon0.15_PT168H.grib2 2026-04-28 04:35 1.1M
20260428T00Z_MSC_GDPS_WindU_IsbL-0600_LatLon0.15_PT168H.grib2 2026-04-28 04:35 1.1M
20260428T00Z_MSC_GDPS_WindU_IsbL-0650_LatLon0.15_PT168H.grib2 2026-04-28 04:35 1.2M
20260428T00Z_MSC_GDPS_WindU_IsbL-0700_LatLon0.15_PT168H.grib2 2026-04-28 04:35 1.2M
20260428T00Z_MSC_GDPS_WindU_IsbL-0750_LatLon0.15_PT168H.grib2 2026-04-28 04:35 1.3M
20260428T00Z_MSC_GDPS_WindU_IsbL-0800_LatLon0.15_PT168H.grib2 2026-04-28 04:35 1.3M
20260428T00Z_MSC_GDPS_WindU_IsbL-0850_LatLon0.15_PT168H.grib2 2026-04-28 04:35 1.4M
20260428T00Z_MSC_GDPS_WindU_IsbL-0875_LatLon0.15_PT168H.grib2 2026-04-28 04:35 1.5M
20260428T00Z_MSC_GDPS_WindU_IsbL-0900_LatLon0.15_PT168H.grib2 2026-04-28 04:35 1.5M
20260428T00Z_MSC_GDPS_WindU_IsbL-0925_LatLon0.15_PT168H.grib2 2026-04-28 04:35 1.5M
20260428T00Z_MSC_GDPS_WindU_IsbL-0950_LatLon0.15_PT168H.grib2 2026-04-28 04:35 1.4M
20260428T00Z_MSC_GDPS_WindU_IsbL-0970_LatLon0.15_PT168H.grib2 2026-04-28 04:35 1.4M
20260428T00Z_MSC_GDPS_WindU_IsbL-0985_LatLon0.15_PT168H.grib2 2026-04-28 04:35 1.4M
20260428T00Z_MSC_GDPS_WindU_IsbL-1000_LatLon0.15_PT168H.grib2 2026-04-28 04:35 1.4M
20260428T00Z_MSC_GDPS_WindU_IsbL-1015_LatLon0.15_PT168H.grib2 2026-04-28 04:35 1.3M
20260428T00Z_MSC_GDPS_WindV_AGL-10m_LatLon0.15_PT168H.grib2 2026-04-28 04:35 1.6M
20260428T00Z_MSC_GDPS_WindV_AGL-120m_LatLon0.15_PT168H.grib2 2026-04-28 04:35 969K
20260428T00Z_MSC_GDPS_WindV_AGL-40m_LatLon0.15_PT168H.grib2 2026-04-28 04:35 1.2M
20260428T00Z_MSC_GDPS_WindV_AGL-80m_LatLon0.15_PT168H.grib2 2026-04-28 04:35 970K
20260428T00Z_MSC_GDPS_WindV_IsbL-0001_LatLon0.15_PT168H.grib2 2026-04-28 04:35 675K
20260428T00Z_MSC_GDPS_WindV_IsbL-0005_LatLon0.15_PT168H.grib2 2026-04-28 04:35 756K
20260428T00Z_MSC_GDPS_WindV_IsbL-0010_LatLon0.15_PT168H.grib2 2026-04-28 04:35 785K
20260428T00Z_MSC_GDPS_WindV_IsbL-0020_LatLon0.15_PT168H.grib2 2026-04-28 04:35 925K
20260428T00Z_MSC_GDPS_WindV_IsbL-0030_LatLon0.15_PT168H.grib2 2026-04-28 04:35 845K
20260428T00Z_MSC_GDPS_WindV_IsbL-0050_LatLon0.15_PT168H.grib2 2026-04-28 04:35 1.0M
20260428T00Z_MSC_GDPS_WindV_IsbL-0100_LatLon0.15_PT168H.grib2 2026-04-28 04:35 1.1M
20260428T00Z_MSC_GDPS_WindV_IsbL-0150_LatLon0.15_PT168H.grib2 2026-04-28 04:35 1.0M
20260428T00Z_MSC_GDPS_WindV_IsbL-0175_LatLon0.15_PT168H.grib2 2026-04-28 04:35 1.0M
20260428T00Z_MSC_GDPS_WindV_IsbL-0200_LatLon0.15_PT168H.grib2 2026-04-28 04:35 837K
20260428T00Z_MSC_GDPS_WindV_IsbL-0225_LatLon0.15_PT168H.grib2 2026-04-28 04:35 846K
20260428T00Z_MSC_GDPS_WindV_IsbL-0250_LatLon0.15_PT168H.grib2 2026-04-28 04:35 848K
20260428T00Z_MSC_GDPS_WindV_IsbL-0275_LatLon0.15_PT168H.grib2 2026-04-28 04:35 875K
20260428T00Z_MSC_GDPS_WindV_IsbL-0300_LatLon0.15_PT168H.grib2 2026-04-28 04:35 866K
20260428T00Z_MSC_GDPS_WindV_IsbL-0350_LatLon0.15_PT168H.grib2 2026-04-28 04:35 882K
20260428T00Z_MSC_GDPS_WindV_IsbL-0400_LatLon0.15_PT168H.grib2 2026-04-28 04:35 883K
20260428T00Z_MSC_GDPS_WindV_IsbL-0450_LatLon0.15_PT168H.grib2 2026-04-28 04:35 1.1M
20260428T00Z_MSC_GDPS_WindV_IsbL-0500_LatLon0.15_PT168H.grib2 2026-04-28 04:35 1.1M
20260428T00Z_MSC_GDPS_WindV_IsbL-0550_LatLon0.15_PT168H.grib2 2026-04-28 04:35 1.1M
20260428T00Z_MSC_GDPS_WindV_IsbL-0600_LatLon0.15_PT168H.grib2 2026-04-28 04:35 1.1M
20260428T00Z_MSC_GDPS_WindV_IsbL-0650_LatLon0.15_PT168H.grib2 2026-04-28 04:35 1.2M
20260428T00Z_MSC_GDPS_WindV_IsbL-0700_LatLon0.15_PT168H.grib2 2026-04-28 04:35 1.2M
20260428T00Z_MSC_GDPS_WindV_IsbL-0750_LatLon0.15_PT168H.grib2 2026-04-28 04:35 1.3M
20260428T00Z_MSC_GDPS_WindV_IsbL-0800_LatLon0.15_PT168H.grib2 2026-04-28 04:35 1.3M
20260428T00Z_MSC_GDPS_WindV_IsbL-0850_LatLon0.15_PT168H.grib2 2026-04-28 04:35 1.4M
20260428T00Z_MSC_GDPS_WindV_IsbL-0875_LatLon0.15_PT168H.grib2 2026-04-28 04:35 1.4M
20260428T00Z_MSC_GDPS_WindV_IsbL-0900_LatLon0.15_PT168H.grib2 2026-04-28 04:35 1.5M
20260428T00Z_MSC_GDPS_WindV_IsbL-0925_LatLon0.15_PT168H.grib2 2026-04-28 04:35 1.4M
20260428T00Z_MSC_GDPS_WindV_IsbL-0950_LatLon0.15_PT168H.grib2 2026-04-28 04:35 1.4M
20260428T00Z_MSC_GDPS_WindV_IsbL-0970_LatLon0.15_PT168H.grib2 2026-04-28 04:35 1.4M
20260428T00Z_MSC_GDPS_WindV_IsbL-0985_LatLon0.15_PT168H.grib2 2026-04-28 04:35 1.4M
20260428T00Z_MSC_GDPS_WindV_IsbL-1000_LatLon0.15_PT168H.grib2 2026-04-28 04:35 1.4M
20260428T00Z_MSC_GDPS_WindV_IsbL-1015_LatLon0.15_PT168H.grib2 2026-04-28 04:35 1.6M